Miscellaneous Local Product
Issued by NWS Hastings, NE

Home | Current Version | Previous Version | Graphics & Text | Print | Product List | Glossary On
Versions: 1 2 3 4 5 6 7 8 9 10 11 12 13 14 15 16 17 18 19 20 21 22 23 24 25 26 27 28 29 30 31 32 33 34 35 36 37 38 39 40 41 42 43 44 45 46 47 48 49 50
000
AXUS43 KGID 271102
MISGRI

GID CWA HOURLY WEATHER ROUNDUP
NATIONAL WEATHER SERVICE HASTINGS NE
600 AM CDT MON JUL 27 2015

NOTE: "FAIR" INDICATES FEW OR NO CLOUDS BELOW 12,000 FEET WITH NO
SIGNIFICANT WEATHER AND/OR OBSTRUCTIONS TO VISIBILITY.

...SOUTH CENTRAL NEBRASKA...

CITY           SKY/WX    TMP DP  RH WIND       PRES   REMARKS
GRAND ISLAND   CLOUDY    71  67  87 CALM      29.87F
HASTINGS       CLOUDY    71  65  81 SE6       29.88R
KEARNEY        CLOUDY    73  63  68 SW10      29.87F
ORD            CLOUDY    72  68  87 SE5       29.88R
YORK           CLOUDY    72  70  94 CALM      29.88R
AURORA         CLOUDY    71  71  99 E6        29.88S
LEXINGTON      CLOUDY    70  64  82 W3        29.89F
HOLDREGE       CLOUDY    69  64  81 SW3       29.88F
HEBRON         CLOUDY    73  66  79 CALM      29.88S

...NEBRASKA PANHANDLE...

CITY           SKY/WX    TMP DP  RH WIND       PRES   REMARKS
CHADRON        CLEAR     69  58  67 SW8       29.85S
ALLIANCE       CLEAR     56  55  97 S6        29.89F
SCOTTSBLUFF    CLEAR     61  59  93 E6        29.90F
SIDNEY         CLEAR     60  59  96 S7        29.94F

...WESTERN AND NORTH CENTRAL NEBRASKA...

CITY           SKY/WX    TMP DP  RH WIND       PRES   REMARKS
VALENTINE      PTCLDY    65  60  84 NE5       29.89S
AINSWORTH      MOCLDY    64  61  90 S5        29.90R
ONEILL         CLOUDY    69  67  95 NE5       29.90F
BROKEN BOW     CLOUDY    69  64  84 VRB3      29.87F
IMPERIAL       MOCLDY    62  60  93 SE5       29.89F
NORTH PLATTE   CLOUDY    64  61  90 CALM      29.89F
MCCOOK         CLOUDY    68  64  87 CALM      29.88F

...EASTERN NEBRASKA...

CITY           SKY/WX    TMP DP  RH WIND       PRES   REMARKS
NORFOLK        CLOUDY    78  76  93 E7        29.86F FOG
SO SIOUX CITY  CLOUDY    74  66  76 N14       29.90R THUNDER
TEKAMAH        MOCLDY    78  76  93 E5        29.85S
COLUMBUS       CLOUDY    75  72  88 CALM      29.86R
ALBION         CLOUDY    76  71  87 NW5       29.90R
OMAHA EPPLEY   CLOUDY    79  75  87 SE9       29.86R
OFFUTT AFB     MOCLDY    77  75  93 E7        29.86R
MILLARD        MOCLDY    78  76  92 SE5       29.86R
LINCOLN        CLOUDY    79  72  79 W7        29.88R
BEATRICE       CLOUDY    75  70  83 S5        29.87S
FALLS CITY     CLOUDY    76  74  93 S5        29.87S

...NORTHERN KANSAS...

CITY           SKY/WX    TMP DP  RH WIND       PRES   REMARKS
GOODLAND       CLOUDY    67  63  87 S15       29.95F
HILL CITY      LGT RAIN  72  65  78 NW9       29.86F
NORTON         PTSUNNY   70  63  78 SE5       29.86F
PHILLIPSBURG   CLEAR     73  70  88 E5        29.87S
SMITH CENTER   CLEAR     70  64  83 SE12      29.88F
HAYS           CLOUDY    70  61  73 SE16      29.86F
RUSSELL        LGT RAIN  70  68  93 SE13      29.89F
CONCORDIA      CLOUDY    73  67  81 S12       29.92R
SALINA         CLOUDY    75  67  76 W16G23    29.94S
TOPEKA         CLOUDY    77  73  87 S3        29.90R



USA.gov is the U.S. government's official web portal to all federal, state and local government web resources and services.